Weather History for Phoenix-Mesa Gateway Airport, AZ

Change the Weather History Date:

Wednesday, March 20, 2013

  Actual Average Record
Temperature  
Mean Temperature 66 °F -  
Max Temperature 80 °F 77 °F 96 °F (2004)
Min Temperature 53 °F 50 °F 41 °F (2012)
Cooling Degree Days 2    
Growing Degree Days 16 (Base 50)    
Moisture  
Dew Point 37 °F    
Average Humidity 39    
Maximum Humidity 55    
Minimum Humidity 15    
Precipitation  
Precipitation 0.00 in - - ()
Sea Level Pressure  
Sea Level Pressure 29.96 in    
Wind  
Wind Speed 5 mph (ESE)    
Max Wind Speed 10 mph    
Max Gust Speed -    
Visibility 11 miles    
Events      
Averages and records for this station are not official NWS values.
T = Trace of Precipitation, MM = Missing Value Source: NWS Daily Summary

Daily Weather History Graph

Daily Weather History Graph

Search for Another Location

Airport:

Trip Planner

Search our weather history database for the weather conditions in past years. The results will help you decide how hot, cold, wet, or windy it might be!

Date:

Astronomy

Mar. 20, 2013 Rise Set
Actual Time 6:29 AM MST 6:38 PM MST
Civil Twilight 6:05 AM MST 7:03 PM MST
Nautical Twilight 5:36 AM MST 7:32 PM MST
Astronomical Twilight 5:07 AM MST 8:01 PM MST
Moon 12:32 PM MST (3/20) 1:56 AM MST (3/20)
Length of Visible Light 12h 58m
Length of Day
12h 08m
First Quarter, 60% of the Moon is Illuminated
Mar 20
First Quarter
Mar 27
Full
Apr 2
Last Quarter
Apr 10
New
Apr 18
First Quarter

Hourly Weather History & Observations

Time (MST) Temp. Dew Point Humidity Pressure Visibility Wind Dir Wind Speed Gust Speed Precip Events Conditions
12:15 AM 57.2 °F 37.4 °F 48% 30.03 in 10.0 mi SE 4.6 mph - N/A   Clear
12:35 AM 57.2 °F 39.2 °F 51% 30.03 in 10.0 mi SE 3.5 mph - N/A   Clear
12:55 AM 57.2 °F 41.0 °F 55% 30.04 in 10.0 mi SE 4.6 mph - N/A   Clear
1:15 AM 57.2 °F 41.0 °F 55% 30.04 in 10.0 mi East 6.9 mph - N/A   Clear
1:35 AM 57.2 °F 39.2 °F 51% 30.03 in 10.0 mi ESE 9.2 mph - N/A   Clear
1:55 AM 57.2 °F 37.4 °F 48% 30.03 in 10.0 mi SE 8.1 mph - N/A   Clear
2:15 AM 57.2 °F 37.4 °F 48% 30.02 in 10.0 mi ESE 5.8 mph - N/A   Clear
2:35 AM 57.2 °F 37.4 °F 48% 30.02 in 10.0 mi ESE 8.1 mph - N/A   Clear
2:55 AM 57.2 °F 37.4 °F 48% 30.02 in 10.0 mi ESE 6.9 mph - N/A   Clear
3:15 AM 55.4 °F 37.4 °F 51% 30.03 in 10.0 mi East 5.8 mph - N/A   Clear
3:35 AM 55.4 °F 37.4 °F 51% 30.02 in 10.0 mi East 5.8 mph - N/A   Clear
3:55 AM 55.4 °F 37.4 °F 51% 30.02 in 10.0 mi East 6.9 mph - N/A   Clear
4:15 AM 53.6 °F 37.4 °F 54% 30.02 in 10.0 mi East 5.8 mph - N/A   Clear
4:35 AM 53.6 °F 37.4 °F 54% 30.02 in 10.0 mi East 8.1 mph - N/A   Clear
4:55 AM 53.6 °F 37.4 °F 54% 30.02 in 10.0 mi ESE 5.8 mph - N/A   Clear
5:15 AM 53.6 °F 37.4 °F 54% 30.02 in 10.0 mi ESE 6.9 mph - N/A   Clear
6:47 AM 55.4 °F 37.4 °F 51% 30.02 in 30.0 mi ESE 8.1 mph - N/A   Mostly Cloudy
7:47 AM 55.4 °F 39.2 °F 54% 30.03 in 45.0 mi ESE 4.6 mph - N/A   Overcast
8:47 AM 60.8 °F 42.8 °F 52% 30.02 in 45.0 mi SE 5.8 mph - N/A   Overcast
9:47 AM 66.2 °F 39.2 °F 37% 30.05 in 30.0 mi Calm Calm - N/A   Overcast
10:47 AM 73.4 °F 35.6 °F 25% 30.04 in 30.0 mi Calm Calm - N/A   Mostly Cloudy
11:47 AM 75.2 °F 37.4 °F 25% 30.02 in 30.0 mi SE 3.5 mph - N/A   Mostly Cloudy
12:50 PM 78.8 °F 33.8 °F 20% 29.99 in 30.0 mi Variable 4.6 mph - N/A   Mostly Cloudy
1:50 PM 78.8 °F 30.2 °F 17% 29.97 in 30.0 mi Calm Calm - N/A   Mostly Cloudy
2:47 PM 80.6 °F 30.2 °F 16% 29.93 in 30.0 mi West 5.8 mph - N/A   Mostly Cloudy
3:47 PM 80.6 °F 28.4 °F 15% 29.92 in 30.0 mi Calm Calm - N/A   Mostly Cloudy
4:47 PM 80.6 °F 30.2 °F 16% 29.90 in 35.0 mi West 5.8 mph - N/A   Mostly Cloudy
5:47 PM 80.6 °F 28.4 °F 15% 29.88 in 35.0 mi Calm Calm - N/A   Mostly Cloudy
6:47 PM 78.8 °F 35.6 °F 21% 29.88 in 20.0 mi North 4.6 mph - N/A   Mostly Cloudy
7:47 PM 73.4 °F 33.8 °F 23% 29.88 in 20.0 mi Calm Calm - N/A   Mostly Cloudy
7:55 PM 71.6 °F 33.8 °F 25% 29.88 in 10.0 mi ENE 3.5 mph - N/A   Clear
8:15 PM 71.6 °F 35.6 °F 27% 29.87 in 10.0 mi East 4.6 mph - N/A   Clear
8:35 PM 69.8 °F 35.6 °F 28% 29.87 in 10.0 mi East 5.8 mph - N/A   Clear
8:55 PM 69.8 °F 37.4 °F 31% 29.88 in 10.0 mi East 4.6 mph - N/A   Clear
9:15 PM 68.0 °F 37.4 °F 33% 29.88 in 10.0 mi East 6.9 mph - N/A   Clear
9:35 PM 68.0 °F 37.4 °F 33% 29.87 in 10.0 mi ESE 4.6 mph - N/A   Clear
9:55 PM 66.2 °F 37.4 °F 35% 29.87 in 10.0 mi ESE 6.9 mph - N/A   Clear
10:15 PM 64.4 °F 37.4 °F 37% 29.87 in 10.0 mi ESE 6.9 mph - N/A   Clear
10:35 PM 64.4 °F 35.6 °F 34% 29.87 in 10.0 mi SE 8.1 mph - N/A   Clear
10:55 PM 64.4 °F 41.0 °F 42% 29.87 in 10.0 mi SE 5.8 mph - N/A   Clear
11:15 PM 64.4 °F 41.0 °F 42% 29.86 in 10.0 mi SE 8.1 mph - N/A   Clear
11:35 PM 64.4 °F 39.2 °F 40% 29.85 in 10.0 mi SE 9.2 mph - N/A   Clear
11:55 PM 64.4 °F 41.0 °F 42% 29.84 in 10.0 mi SE 10.4 mph - N/A   Clear